Zurück zum Katalog

DELTA 1 DEB

AktivLEO
NORAD 10730·DEBRIS·🇺🇸 United States

Gestartet Apr 9, 1975 von Vandenberg Space Force Base

Loading…

Nächste Überflüge (nächste 24 Stunden)

TLE

AktuellSource: Space-Track

Epoche: Sep 14, 2026, 10:25 UTC

1 10730U 75027E   26257.43441536 -.00000032  00000-0  94082-4 0  9997
2 10730 114.9875 242.5296 0114578 246.2597 112.6415 13.94798808616616

Verfolge DELTA 1 DEB in Echtzeit mit AllMySat

Download on the App Store